Preview of NWS' New Version of Forecast
This preview is not operational and should not be used for support decisions.

Regional Weather Roundup (RWR)

Issued by National Weather Service (NWS)

                            
000
ASUS44 KMEG 231210
RWRTN 
TENNESSEE HOURLY STATE WEATHER ROUNDUP
NATIONAL WEATHER SERVICE MEMPHIS TN
700 AM CDT THU MAY 23 2019

TNZ002-004-019-021-049-052-054-088>092-231300-
WEST TENNESSEE
  
CITY           SKY/WX    TMP DP  RH WIND       PRES   REMARKS
MEMPHIS INTL   PTSUNNY   75  72  90 S9        30.13R                  
NWS MEMPHIS      N/A     74 N/A N/A MISG        N/A                   
JACKSON        FAIR      72  69  90 S6        30.15R                  
DYERSBURG      FAIR      76  71  85 SW5       30.15R                  
SOMERVILLE     SUNNY     73  70  88 S5        30.13R                  
COVINGTON      SUNNY     75  72  88 S5        30.13R                  
UNION CITY     SUNNY     75  72  88 S7        30.12R                  
BOLIVAR        SUNNY     70  68  94 SE5       30.15R                  
PARIS          SUNNY     72  68  88 S7        30.15R                  
HUNTINGDON     SUNNY     73  70  88 VRB3      30.15R                  
LEXINGTON      SUNNY     70  66  88 CALM      30.15S                  
SELMER         SUNNY     72  68  88 CALM      30.16R                  
SAVANNAH       SUNNY     72  68  88 S5        30.16S                  
$$

TNZ008-025-027-028-033-062-065-066-231300-
NORTH MIDDLE TENNESSEE
  
CITY           SKY/WX    TMP DP  RH WIND       PRES   REMARKS
NASHVILLE      CLOUDY    72  59  63 S3        30.20R                  
DICKSON        SUNNY     70  64  83 S6        30.18R                  
PORTLAND       SUNNY     72  59  64 S9        30.19R                  
CLARKSVILLE    FAIR      74  64  71 S6        30.16R                  
LEBANON        SUNNY     73  57  56 SW8       30.18R                  
SMYRNA         FAIR      69  61  75 SE6       30.21R                  
MURFREESBORO   SUNNY     70  61  73 CALM      30.19R                  
COOKEVILLE     SUNNY     70  64  83 S6        30.23R                  
CROSSVILLE     NOT AVBL                                               
ROCKWOOD       SUNNY     70  66  88 CALM      30.27R                  
$$

TNZ061-075-076-078-094-096-097-231300-
SOUTH MIDDLE TENNESSEE
  
CITY           SKY/WX    TMP DP  RH WIND       PRES   REMARKS
LAWRENCEBURG   SUNNY     68  63  83 CALM      30.21R                  
LEWISBURG      SUNNY     70  63  78 CALM      30.20R                  
FAYETTEVILLE   SUNNY     70  59  68 CALM      30.22R                  
TULLAHOMA      SUNNY     66  61  82 CALM      30.23R                  
WINCHESTER     SUNNY     68  61  77 SE5       30.23R                  
MCMINNVILLE    SUNNY     63  61  94 CALM      30.23R                  
COLUMBIA       SUNNY     72  66  83 CALM      30.18R                  
SHELBYVILLE    SUNNY     68  61  77 SE5       30.21R                  
$$

TNZ017-018-042-046-047-231300-
NORTHEAST TENNESSEE
  
CITY           SKY/WX    TMP DP  RH WIND       PRES   REMARKS
TRI CITIES     PTSUNNY   69  64  84 CALM      30.26R                  
ELIZABETHTON   FAIR      68  64  88 VRB3      30.27R                  
GREENEVILLE    MOSUNNY   72  64  78 CALM      30.26R                  
$$

TNZ012-013-036-069-073-074-231300-
CENTRAL EAST TENNESSEE
  
CITY           SKY/WX    TMP DP  RH WIND       PRES   REMARKS
KNOXVILLE      CLOUDY    73  67  81 W5        30.24R                  
OAK RIDGE      FAIR      73  64  73 CALM      30.25R                  
DOWNTOWN KNOXV SUNNY     66  66 100 CALM      30.25R FOG              
GATLINBURG     MOSUNNY   68  66  94 CALM      30.25R                  
MORRISTOWN     MOSUNNY   68  66  94 CALM      30.25R                  
JACKSBORO      SUNNY     66  64  94 CALM      30.27R                  
$$

TNZ083-085-099-231300-
SOUTHEAST TENNESSEE
  
CITY           SKY/WX    TMP DP  RH WIND       PRES   REMARKS
CHATTANOOGA    PTSUNNY   72  68  87 CALM      30.25R                  
DAYTON         SUNNY     70  66  88 CALM      30.24R                  
$$

SKY/WX REPORTED AS FAIR MEANS FEW OR NO CLOUDS BELOW
12 THOUSAND FEET.